SCP
0 0 0 0 0 0 0 -0 0 0 0 0 0 0 0 0 0 0 0 0 0 0 0 0 0 0 0 0 0 0 0 0 0 0 0 0 0 0 0 0 0 0 0 0
0 0 0 0 0 0 0 0 0 0 0 0 -0 0 0 0 0 0 0 0 0 0 0 0 0 0 0 0 0 0 0 0 0 0 0 0 0 0 0 0 0 0 0 0
0 0 0 0 0 0 0 0 0 0 -0 -0 -0 -0 0 0 0 0 0 0 0 0 0 0 0 0 0 0 0 0 0 0 0 0 0 0 0 0 0 0 0 0 0 0
0 0 0 0 0 0 0 0 -0 -0 -0 -0 0 -0 0 0 0 0 0 0 0 0 0 0 0 0 0 0 0 0 0 0 0 0 0 0 0 0 0 0 0 0 0 0
0 0 0 0 0 0 0 0 -0 0 -0 -0 -0 -0 -0 -0 0 0 0 0 0 0 0 0 0 0 0 0 0 0 0 0 0 0 0 0 0 0 0 0 0 0 0 0
0 0 0 0 0 0 0 0 0 0 0 0 -0 -0 -0 -0 0 0 0 0 0 0 0 0 0 0 0 0 0 0 0 0 0 0 0 0 0 0 0 0 0 0 0 0
-0 0 0 0 0 0 0 0 0 0 0 -0 -0 -0 -0 -0 0 0 0 0 0 0 0 0 0 0 0 0 0 0 0 0 0 0 0 0 0 0 0 0 0 0 0 0
0 0 0 0 0 0 0 0 0 0 0 0 0 -0 -0 0 0 0 0 0 0 0 0 0 0 0 0 0 0 0 0 0 0 0 0 0 0 0 0 0 0 0 0 0
0 0 0 0 -0 0 0 0 -0 -0 -0 0 0 0 0 0 0 0 0 0 0 0 0 0 0 0 0 0 0 0 0 0 0 0 0 0 0 0 0 0 0 0 0 0
0 0 0 -0 0 0 0 0 -0 -0 0 0 0 0 0 0 -0 0 0 0 0 0 0 0 0 0 0 0 0 0 0 0 0 0 0 0 0 0 0 0 0 0 0 0
0 0 0 -0 0 0 0 0 0 -0 -0 0 0 0 0 0 -0 0 0 0 0 0 0 0 0 0 0 0 0 0 0 0 0 0 0 0 0 0 0 0 0 0 0 0
0 0 0 -0 -0 -0 0 0 0 0 -0 0 0 0 -0 0 0 0 0 0 0 0 0 0 0 0 0 0 0 0 0 0 0 0 0 0 0 0 0 0 0 0 0 0
0 0 0 0 0 0 0 0 0 0 0 0 0 0 0 -0 0 0 0 0 0 0 0 0 0 0 0 0 0 0 0 0 0 0 0 0 0 0 0 0 0 0 0 0
0 0 0 0 0 0 0 0 0 0 0 0 0 0 0 0 0 0 0 0 -0 -0 0 0 0 0 0 0 0 0 0 0 0 0 0 0 0 0 0 0 0 0 0 0
0 0 0 0 0 -0 0 0 0 0 0 0 0 0 0 0 0 0 0 0 0 0 -0 -0 -0 -0 0 0 0 0 0 0 0 0 0 0 0 0 0 0 0 0 0 0
0 0 0 0 0 -0 0 0 0 0 0 0 0 0 0 0 0 0 0 0 0 0 0 0 0 0 0 0 0 0 0 0 0 0 0 0 0 0 0 0 0 0 0 0
0 -0 0 0 0 0 0 0 -0 0 0 0 0 0 -0 0 0 0 0 0 0 0 0 0 0 0 0 0 -0 -0 -0 -0 0 0 0 0 0 0 0 0 0 0 0 0
0 0 0 -0 -0 0 0 0 0 0 0 0 0 0 0 0 0 0 0 0 -0 -0 -0 -0 -0 -0 -0 -0 -0 -0 0 0 0 0 0 0 0 0 0 0 0 0 0 0
0 0 0 0 0 0 0 0 0 0 0 0 0 0 0 0 0 0 0 0 0 -0 0 0 0 0 0 0 0 0 0 0 0 0 0 0 0 0 0 0 0 0 0 0
0 0 0 0 -0 -0 -0 0 0 0 0 0 0 0 0 0 0 0 0 0 0 0 0 0 0 0 0 0 0 0 0 0 0 0 0 0 0 0 0 0 0 0 0 0
0 0 -0 -0 0 -0 -0 0 -0 0 0 0 0 0 0 0 0 0 0 0 0 0 0 0 0 0 0 0 0 0 0 0 0 0 0 0 0 0 0 0 0 0 0 0
0 0 0 0 0 -0 -0 -0 0 0 0 0 0 0 0 0 0 0 0 0 0 0 0 0 0 0 0 0 0 0 0 0 0 0 0 0 0 0 0 0 0 0 0 0
0 0 0 0 -0 0 -0 -0 0 0 0 0 0 0 0 0 0 0 0 0 0 0 0 0 0 0 0 0 0 0 0 0 0 0 0 0 0 0 0 0 0 0 0 0
0 0 0 0 0 -0 -0 0 0 0 0 0 0 0 0 0 0 0 0 0 0 0 0 0 0 0 0 0 0 0 0 0 0 0 0 0 0 0 0 0 0 0 0 0
-0 -0 0 0 0 0 0 0 0 0 0 0 0 0 0 0 0 0 0 0 0 0 0 0 0 0 0 0 0 0 0 0 0 0 0 0 0 0 0 0 0 0 0 0
-0 -0 0 -0 -0 -0 0 0 0 0 0 0 0 0 0 0 0 0 0 0 0 0 0 0 0 0 0 0 0 0 0 0 0 0 0 0 0 0 0 0 0 0 0 0
Wind_Speed_500mb
20 5 13 22 24 31 17 12 21 13 11 5 16 24 29 48 47 47 46 53 69 68 68 67 63 68 67 64 66 65 63 57 52 49 42 38 34 26 33 27 19 11 9 12
9 21 30 17 24 26 31 29 16 6 0 11 8 31 22 34 46 60 61 51 61 64 65 62 62 64 62 62 61 59 55 52 50 47 45 43 35 37 30 25 17 15 16 11
13 29 18 20 25 27 26 26 12 2 4 4 7 11 12 28 29 46 47 50 52 68 65 64 61 60 59 57 59 55 53 53 50 48 48 46 45 39 31 24 20 20 14 6
15 15 23 25 20 11 25 19 29 9 7 6 4 7 3 25 19 31 48 55 70 68 63 61 60 57 52 53 51 57 60 58 55 54 53 54 47 40 33 25 23 18 12 5
13 22 23 28 29 20 14 15 23 16 17 7 8 6 2 15 18 21 40 61 63 74 75 70 66 56 49 50 50 54 62 61 60 58 55 54 44 35 33 32 24 16 10 4
29 31 10 22 9 17 11 5 10 10 6 13 21 13 9 12 20 15 29 52 65 73 70 69 60 54 51 49 52 55 55 56 57 55 53 40 33 38 38 30 22 15 9 6
27 12 17 17 6 10 4 8 8 12 11 9 33 15 26 18 15 26 20 45 61 77 77 71 68 58 56 54 54 52 53 56 55 49 46 43 38 37 30 23 19 14 9 3
8 17 4 5 11 11 13 9 9 7 9 8 20 15 10 6 10 32 54 51 64 73 73 73 68 68 55 61 57 52 48 46 48 39 40 39 41 31 25 20 19 12 7 3
8 11 8 9 13 2 9 10 3 11 6 6 9 4 6 2 9 11 46 56 58 65 72 68 68 63 65 56 61 54 46 45 37 42 43 38 33 27 23 23 16 10 8 6
7 15 11 3 10 11 13 4 4 1 8 2 5 6 2 9 13 14 32 47 51 60 65 67 70 66 72 74 68 64 57 49 47 49 40 33 30 25 24 17 13 11 9 5
13 13 11 5 2 9 3 7 8 7 5 4 5 4 4 12 18 30 33 50 57 63 69 69 67 59 58 58 56 55 53 54 54 49 44 40 32 28 20 18 15 13 8 4
9 6 6 14 11 14 8 9 12 5 6 7 5 4 4 7 2 16 31 44 44 55 64 62 55 64 68 64 61 56 57 56 55 45 42 38 34 29 23 20 16 12 8 6
8 4 6 19 10 7 2 14 10 8 3 6 0 5 2 7 9 30 43 46 54 55 58 60 65 69 66 60 55 58 57 54 46 44 41 36 30 27 24 19 17 13 9 8
21 6 6 8 5 4 9 17 17 6 3 8 3 3 6 6 11 20 39 48 55 62 69 66 67 70 64 62 65 61 56 49 43 43 40 33 29 24 22 20 17 13 11 12
9 7 7 10 14 10 10 11 10 5 7 4 7 9 10 3 9 16 39 48 48 55 61 70 68 55 58 61 65 62 56 49 48 44 37 32 28 25 22 20 16 13 14 15
13 8 7 9 11 6 14 17 13 12 6 11 12 2 10 6 14 23 41 50 51 60 67 65 67 65 66 69 66 62 57 54 47 40 35 31 27 24 21 17 16 18 18 18
6 8 7 7 11 9 13 16 23 9 11 13 15 10 10 0 8 23 38 50 54 61 64 68 69 68 65 68 69 68 58 49 46 40 35 27 28 23 20 19 20 20 21 21
7 6 4 7 8 2 12 4 6 13 13 15 10 10 15 16 15 19 32 44 49 54 59 62 63 63 63 66 66 61 59 51 46 40 30 33 27 21 19 21 23 23 24 24
13 5 7 1 3 13 8 7 4 2 8 8 11 12 10 20 14 12 29 33 35 40 44 48 51 55 59 65 67 62 55 51 46 39 36 29 22 19 22 25 24 26 27 26
9 7 1 7 1 4 6 7 10 4 7 12 17 6 14 24 7 6 20 33 33 33 39 44 45 49 56 66 65 61 57 54 45 39 30 25 22 24 25 25 27 29 27 26
3 4 9 9 7 13 7 7 9 9 8 20 16 13 11 5 1 7 4 24 27 29 34 36 39 44 50 62 66 67 63 54 39 31 30 28 27 25 25 29 29 28 30 33
9 8 8 1 3 8 5 0 1 4 10 14 9 14 11 7 1 4 3 7 21 26 34 37 37 41 49 62 66 63 52 39 37 33 32 31 27 27 30 30 32 36 38 39
5 10 5 13 10 8 8 12 9 9 10 8 6 1 4 6 3 4 3 7 16 24 28 32 34 38 45 54 57 58 45 41 36 37 33 30 30 31 32 37 39 42 39 44
9 13 7 6 7 15 29 22 39 32 20 14 8 5 9 12 13 5 5 10 19 26 31 33 38 41 47 51 52 48 40 38 38 34 31 30 33 36 40 40 38 41 43 45
13 13 8 11 22 43 33 24 39 25 31 25 11 5 13 15 13 9 7 13 18 24 33 35 36 40 43 46 47 46 45 40 36 31 29 35 39 39 37 38 40 44 45 48
22 14 10 12 17 14 12 11 12 24 23 20 19 10 11 16 14 10 11 15 20 26 32 36 36 36 38 40 40 40 39 38 33 30 34 32 34 35 37 41 45 48 50 52
Wind_Direction_500mb
287 230 244 240 232 240 284 223 272 207 85 80 304 310 203 191 176 164 162 165 169 182 177 180 179 181 185 185 186 194 193 198 197 195 196 199 196 207 177 173 172 175 186 173
310 258 249 259 280 247 238 255 243 275 174 119 324 300 314 211 186 172 165 169 168 178 177 178 180 184 187 188 188 191 194 196 198 202 206 199 186 177 176 177 171 168 166 169
260 258 288 203 283 253 241 242 214 308 229 88 307 254 297 236 188 171 171 167 168 178 177 176 182 186 187 188 191 190 193 193 200 202 199 191 180 174 177 179 170 166 164 178
265 312 272 254 256 259 264 219 221 199 179 237 168 279 258 300 197 175 167 171 178 182 185 181 185 185 187 189 189 196 197 203 205 204 199 195 183 178 171 168 169 170 173 178
257 306 317 310 249 230 254 188 217 191 186 175 156 254 164 184 282 205 179 178 175 182 188 184 185 189 185 187 190 194 196 195 202 196 189 180 173 172 167 166 173 174 177 175
260 263 217 241 286 247 270 232 275 198 203 233 188 170 200 191 217 216 189 175 169 174 184 186 181 184 183 182 187 189 189 187 183 187 182 176 174 173 168 168 175 174 181 190
317 263 235 211 252 285 147 224 227 215 188 227 165 179 244 210 156 192 198 169 161 171 183 183 180 180 178 180 179 176 180 178 180 179 172 170 162 174 166 169 177 179 175 155
260 321 267 217 208 211 201 221 256 220 180 184 152 208 266 171 165 147 184 184 170 176 182 180 179 178 178 177 172 168 174 183 173 177 162 166 172 170 174 174 184 170 170 203
307 273 316 240 195 218 261 213 123 310 257 172 169 275 280 134 209 222 180 166 173 179 188 184 177 165 172 179 172 168 168 166 168 163 155 175 176 173 180 184 167 171 196 220
299 299 273 316 27 225 226 195 54 77 292 87 55 337 256 206 223 126 160 164 169 175 185 186 169 183 179 177 175 172 177 183 176 161 166 177 184 179 186 173 175 196 207 230
264 220 281 343 331 306 244 249 255 160 250 330 121 253 200 197 197 175 170 169 167 173 181 179 174 185 180 179 174 180 177 175 164 174 173 183 182 186 182 183 197 208 215 234
254 273 265 227 264 151 256 255 210 151 272 260 248 214 296 264 161 159 156 149 150 172 183 188 177 182 181 184 180 179 177 172 175 175 180 179 187 182 184 194 206 214 222 246
342 261 4 339 357 359 218 338 267 288 84 235 300 312 356 279 85 153 149 150 160 170 177 189 183 188 181 182 184 185 178 178 179 184 185 186 189 191 193 202 214 219 230 255
303 296 159 192 206 192 299 318 323 254 82 314 265 346 348 17 95 130 149 164 181 179 183 184 189 191 187 189 187 183 182 186 188 188 188 188 192 195 202 211 218 225 242 260
17 294 327 263 259 230 251 262 297 290 236 158 302 24 330 292 170 132 150 156 165 176 187 192 200 197 194 191 188 186 187 189 189 190 188 192 197 204 212 217 227 245 259 269
338 296 311 293 280 274 273 258 244 239 244 250 285 190 286 338 137 140 151 159 167 181 192 198 200 202 199 194 190 187 192 190 189 192 193 197 204 212 219 232 248 256 262 271
317 316 318 281 338 331 296 224 235 236 210 180 225 190 178 256 183 183 173 176 177 188 197 201 205 207 202 197 194 191 190 190 193 194 196 204 213 218 230 246 256 262 266 271
293 310 269 292 351 311 237 205 254 222 257 261 276 177 179 182 205 215 208 199 198 198 202 207 208 210 207 200 195 193 193 194 194 196 205 211 214 226 247 259 263 265 268 271
200 287 292 129 251 287 315 10 12 310 299 356 248 149 156 145 152 249 220 221 221 217 217 215 213 210 204 199 195 195 194 195 198 203 208 212 222 242 258 264 267 270 271 268
231 249 221 344 119 270 265 319 333 294 317 357 342 198 154 154 145 245 218 213 215 219 219 213 212 208 204 199 196 195 196 199 204 210 210 219 236 251 263 270 274 272 276 279
322 324 235 261 269 288 263 299 325 81 266 339 347 336 165 128 96 105 117 193 204 210 209 209 210 208 201 197 196 199 201 205 204 205 215 231 243 257 273 275 277 282 285 281
192 165 219 74 321 287 195 188 85 229 328 330 357 37 104 99 3 347 10 182 192 193 195 203 202 201 199 199 201 203 206 203 203 213 228 239 250 269 277 282 288 287 279 274
297 195 218 183 225 244 227 261 268 265 290 335 346 38 152 213 8 360 278 218 200 199 196 197 198 197 198 201 204 207 212 205 212 225 236 248 260 275 286 284 281 275 273 274
244 195 215 33 281 241 267 266 257 255 255 292 319 297 210 216 224 264 249 201 189 190 192 192 192 193 193 196 203 209 209 212 222 232 246 259 275 279 272 274 278 279 279 285
214 153 198 261 277 273 288 271 255 261 249 247 252 304 206 208 211 229 224 198 190 190 186 188 188 188 190 196 198 201 205 216 228 239 255 267 268 270 274 282 289 289 291 292
188 203 175 223 249 247 288 335 345 233 240 239 240 262 210 201 204 215 201 184 185 186 187 186 186 188 190 194 198 202 207 219 230 244 259 268 271 276 286 291 293 293 293 293
Wind_Speed_850mb
20 5 13 22 24 31 17 12 21 13 11 5 16 24 29 48 47 47 46 53 69 68 68 67 63 68 67 64 66 65 63 57 52 49 42 38 34 26 33 27 19 11 9 12
9 21 30 17 24 26 31 29 16 6 0 11 8 31 22 34 46 60 61 51 61 64 65 62 62 64 62 62 61 59 55 52 50 47 45 43 35 37 30 25 17 15 16 11
13 29 18 20 25 27 26 26 12 2 4 4 7 11 12 28 29 46 47 50 52 68 65 64 61 60 59 57 59 55 53 53 50 48 48 46 45 39 31 24 20 20 14 6
15 15 23 25 20 11 25 19 29 9 7 6 4 7 3 25 19 31 48 55 70 68 63 61 60 57 52 53 51 57 60 58 55 54 53 54 47 40 33 25 23 18 12 5
13 22 23 28 29 20 14 15 23 16 17 7 8 6 2 15 18 21 40 61 63 74 75 70 66 56 49 50 50 54 62 61 60 58 55 54 44 35 33 32 24 16 10 4
29 31 10 22 9 17 11 5 10 10 6 13 21 13 9 12 20 15 29 52 65 73 70 69 60 54 51 49 52 55 55 56 57 55 53 40 33 38 38 30 22 15 9 6
27 12 17 17 6 10 4 8 8 12 11 9 33 15 26 18 15 26 20 45 61 77 77 71 68 58 56 54 54 52 53 56 55 49 46 43 38 37 30 23 19 14 9 3
8 17 4 5 11 11 13 9 9 7 9 8 20 15 10 6 10 32 54 51 64 73 73 73 68 68 55 61 57 52 48 46 48 39 40 39 41 31 25 20 19 12 7 3
8 11 8 9 13 2 9 10 3 11 6 6 9 4 6 2 9 11 46 56 58 65 72 68 68 63 65 56 61 54 46 45 37 42 43 38 33 27 23 23 16 10 8 6
7 15 11 3 10 11 13 4 4 1 8 2 5 6 2 9 13 14 32 47 51 60 65 67 70 66 72 74 68 64 57 49 47 49 40 33 30 25 24 17 13 11 9 5
13 13 11 5 2 9 3 7 8 7 5 4 5 4 4 12 18 30 33 50 57 63 69 69 67 59 58 58 56 55 53 54 54 49 44 40 32 28 20 18 15 13 8 4
9 6 6 14 11 14 8 9 12 5 6 7 5 4 4 7 2 16 31 44 44 55 64 62 55 64 68 64 61 56 57 56 55 45 42 38 34 29 23 20 16 12 8 6
8 4 6 19 10 7 2 14 10 8 3 6 0 5 2 7 9 30 43 46 54 55 58 60 65 69 66 60 55 58 57 54 46 44 41 36 30 27 24 19 17 13 9 8
21 6 6 8 5 4 9 17 17 6 3 8 3 3 6 6 11 20 39 48 55 62 69 66 67 70 64 62 65 61 56 49 43 43 40 33 29 24 22 20 17 13 11 12
9 7 7 10 14 10 10 11 10 5 7 4 7 9 10 3 9 16 39 48 48 55 61 70 68 55 58 61 65 62 56 49 48 44 37 32 28 25 22 20 16 13 14 15
13 8 7 9 11 6 14 17 13 12 6 11 12 2 10 6 14 23 41 50 51 60 67 65 67 65 66 69 66 62 57 54 47 40 35 31 27 24 21 17 16 18 18 18
6 8 7 7 11 9 13 16 23 9 11 13 15 10 10 0 8 23 38 50 54 61 64 68 69 68 65 68 69 68 58 49 46 40 35 27 28 23 20 19 20 20 21 21
7 6 4 7 8 2 12 4 6 13 13 15 10 10 15 16 15 19 32 44 49 54 59 62 63 63 63 66 66 61 59 51 46 40 30 33 27 21 19 21 23 23 24 24
13 5 7 1 3 13 8 7 4 2 8 8 11 12 10 20 14 12 29 33 35 40 44 48 51 55 59 65 67 62 55 51 46 39 36 29 22 19 22 25 24 26 27 26
9 7 1 7 1 4 6 7 10 4 7 12 17 6 14 24 7 6 20 33 33 33 39 44 45 49 56 66 65 61 57 54 45 39 30 25 22 24 25 25 27 29 27 26
3 4 9 9 7 13 7 7 9 9 8 20 16 13 11 5 1 7 4 24 27 29 34 36 39 44 50 62 66 67 63 54 39 31 30 28 27 25 25 29 29 28 30 33
9 8 8 1 3 8 5 0 1 4 10 14 9 14 11 7 1 4 3 7 21 26 34 37 37 41 49 62 66 63 52 39 37 33 32 31 27 27 30 30 32 36 38 39
5 10 5 13 10 8 8 12 9 9 10 8 6 1 4 6 3 4 3 7 16 24 28 32 34 38 45 54 57 58 45 41 36 37 33 30 30 31 32 37 39 42 39 44
9 13 7 6 7 15 29 22 39 32 20 14 8 5 9 12 13 5 5 10 19 26 31 33 38 41 47 51 52 48 40 38 38 34 31 30 33 36 40 40 38 41 43 45
13 13 8 11 22 43 33 24 39 25 31 25 11 5 13 15 13 9 7 13 18 24 33 35 36 40 43 46 47 46 45 40 36 31 29 35 39 39 37 38 40 44 45 48
22 14 10 12 17 14 12 11 12 24 23 20 19 10 11 16 14 10 11 15 20 26 32 36 36 36 38 40 40 40 39 38 33 30 34 32 34 35 37 41 45 48 50 52
Wind_Direction_850mb
287 230 244 240 232 240 284 223 272 207 85 80 304 310 203 191 176 164 162 165 169 182 177 180 179 181 185 185 186 194 193 198 197 195 196 199 196 207 177 173 172 175 186 173
310 258 249 259 280 247 238 255 243 275 174 119 324 300 314 211 186 172 165 169 168 178 177 178 180 184 187 188 188 191 194 196 198 202 206 199 186 177 176 177 171 168 166 169
260 258 288 203 283 253 241 242 214 308 229 88 307 254 297 236 188 171 171 167 168 178 177 176 182 186 187 188 191 190 193 193 200 202 199 191 180 174 177 179 170 166 164 178
265 312 272 254 256 259 264 219 221 199 179 237 168 279 258 300 197 175 167 171 178 182 185 181 185 185 187 189 189 196 197 203 205 204 199 195 183 178 171 168 169 170 173 178
257 306 317 310 249 230 254 188 217 191 186 175 156 254 164 184 282 205 179 178 175 182 188 184 185 189 185 187 190 194 196 195 202 196 189 180 173 172 167 166 173 174 177 175
260 263 217 241 286 247 270 232 275 198 203 233 188 170 200 191 217 216 189 175 169 174 184 186 181 184 183 182 187 189 189 187 183 187 182 176 174 173 168 168 175 174 181 190
317 263 235 211 252 285 147 224 227 215 188 227 165 179 244 210 156 192 198 169 161 171 183 183 180 180 178 180 179 176 180 178 180 179 172 170 162 174 166 169 177 179 175 155
260 321 267 217 208 211 201 221 256 220 180 184 152 208 266 171 165 147 184 184 170 176 182 180 179 178 178 177 172 168 174 183 173 177 162 166 172 170 174 174 184 170 170 203
307 273 316 240 195 218 261 213 123 310 257 172 169 275 280 134 209 222 180 166 173 179 188 184 177 165 172 179 172 168 168 166 168 163 155 175 176 173 180 184 167 171 196 220
299 299 273 316 27 225 226 195 54 77 292 87 55 337 256 206 223 126 160 164 169 175 185 186 169 183 179 177 175 172 177 183 176 161 166 177 184 179 186 173 175 196 207 230
264 220 281 343 331 306 244 249 255 160 250 330 121 253 200 197 197 175 170 169 167 173 181 179 174 185 180 179 174 180 177 175 164 174 173 183 182 186 182 183 197 208 215 234
254 273 265 227 264 151 256 255 210 151 272 260 248 214 296 264 161 159 156 149 150 172 183 188 177 182 181 184 180 179 177 172 175 175 180 179 187 182 184 194 206 214 222 246
342 261 4 339 357 359 218 338 267 288 84 235 300 312 356 279 85 153 149 150 160 170 177 189 183 188 181 182 184 185 178 178 179 184 185 186 189 191 193 202 214 219 230 255
303 296 159 192 206 192 299 318 323 254 82 314 265 346 348 17 95 130 149 164 181 179 183 184 189 191 187 189 187 183 182 186 188 188 188 188 192 195 202 211 218 225 242 260
17 294 327 263 259 230 251 262 297 290 236 158 302 24 330 292 170 132 150 156 165 176 187 192 200 197 194 191 188 186 187 189 189 190 188 192 197 204 212 217 227 245 259 269
338 296 311 293 280 274 273 258 244 239 244 250 285 190 286 338 137 140 151 159 167 181 192 198 200 202 199 194 190 187 192 190 189 192 193 197 204 212 219 232 248 256 262 271
317 316 318 281 338 331 296 224 235 236 210 180 225 190 178 256 183 183 173 176 177 188 197 201 205 207 202 197 194 191 190 190 193 194 196 204 213 218 230 246 256 262 266 271
293 310 269 292 351 311 237 205 254 222 257 261 276 177 179 182 205 215 208 199 198 198 202 207 208 210 207 200 195 193 193 194 194 196 205 211 214 226 247 259 263 265 268 271
200 287 292 129 251 287 315 10 12 310 299 356 248 149 156 145 152 249 220 221 221 217 217 215 213 210 204 199 195 195 194 195 198 203 208 212 222 242 258 264 267 270 271 268
231 249 221 344 119 270 265 319 333 294 317 357 342 198 154 154 145 245 218 213 215 219 219 213 212 208 204 199 196 195 196 199 204 210 210 219 236 251 263 270 274 272 276 279
322 324 235 261 269 288 263 299 325 81 266 339 347 336 165 128 96 105 117 193 204 210 209 209 210 208 201 197 196 199 201 205 204 205 215 231 243 257 273 275 277 282 285 281
192 165 219 74 321 287 195 188 85 229 328 330 357 37 104 99 3 347 10 182 192 193 195 203 202 201 199 199 201 203 206 203 203 213 228 239 250 269 277 282 288 287 279 274
297 195 218 183 225 244 227 261 268 265 290 335 346 38 152 213 8 360 278 218 200 199 196 197 198 197 198 201 204 207 212 205 212 225 236 248 260 275 286 284 281 275 273 274
244 195 215 33 281 241 267 266 257 255 255 292 319 297 210 216 224 264 249 201 189 190 192 192 192 193 193 196 203 209 209 212 222 232 246 259 275 279 272 274 278 279 279 285
214 153 198 261 277 273 288 271 255 261 249 247 252 304 206 208 211 229 224 198 190 190 186 188 188 188 190 196 198 201 205 216 228 239 255 267 268 270 274 282 289 289 291 292
188 203 175 223 249 247 288 335 345 233 240 239 240 262 210 201 204 215 201 184 185 186 187 186 186 188 190 194 198 202 207 219 230 244 259 268 271 276 286 291 293 293 293 293